OCN2T EDDG-EGLL

Flight info

Callsign OCN2T
Flight time 1h 4m
Altitude 32000
Route AMSAN1W/25 AMSAN L980 RKN DCT ABNED L980 LOGAN
Aircraft A320/M-SDE3FGHIRWY/LB1

Departure

Time 2026-04-24 15:08
Airport Münster Osnabrück Airport (EDDG)

Arrival

Time 2026-04-24 16:12
Airport London Heathrow Airport (EGLL)
Time Latitude Longitude Altitude Speed Heading
2026-04-24 14:47 52.13183 7.69456 168 ft 0 kts 197°
2026-04-24 14:58 52.13186 7.69457 167 ft 3 kts 197°
2026-04-24 14:59 52.13211 7.69470 167 ft 4 kts 197°
2026-04-24 14:59 52.13236 7.69483 167 ft 4 kts 203°
2026-04-24 14:59 52.13259 7.69505 167 ft 4 kts 227°
2026-04-24 14:59 52.13271 7.69535 167 ft 1 kts 251°
2026-04-24 15:00 52.13271 7.69536 167 ft 0 kts 251°
2026-04-24 15:03 52.13271 7.69535 167 ft 0 kts 251°
2026-04-24 15:03 52.13270 7.69530 167 ft 1 kts 251°
2026-04-24 15:03 52.13266 7.69512 167 ft 5 kts 251°
2026-04-24 15:04 52.13247 7.69421 167 ft 10 kts 251°
2026-04-24 15:04 52.13262 7.69305 167 ft 13 kts 326°
2026-04-24 15:04 52.13359 7.69262 167 ft 16 kts 342°
2026-04-24 15:04 52.13436 7.69236 167 ft 10 kts 17°
2026-04-24 15:05 52.13469 7.69329 167 ft 10 kts 71°
2026-04-24 15:05 52.13492 7.69439 167 ft 11 kts 71°
2026-04-24 15:05 52.13517 7.69556 167 ft 11 kts 71°
2026-04-24 15:05 52.13543 7.69679 167 ft 12 kts 71°
2026-04-24 15:06 52.13570 7.69807 167 ft 12 kts 71°
2026-04-24 15:06 52.13598 7.69942 167 ft 13 kts 70°
2026-04-24 15:06 52.13662 7.70036 167 ft 13 kts 18°
2026-04-24 15:06 52.13748 7.70007 167 ft 9 kts 334°
2026-04-24 15:07 52.13770 7.69919 167 ft 10 kts 250°
2026-04-24 15:07 52.13721 7.69693 168 ft 49 kts 251°
2026-04-24 15:07 52.13536 7.68811 168 ft 115 kts 251°
2026-04-24 15:07 52.13224 7.67357 401 ft 144 kts 253°
2026-04-24 15:08 52.12886 7.65829 1180 ft 142 kts 255°
2026-04-24 15:08 52.12541 7.64276 1716 ft 155 kts 256°
2026-04-24 15:08 52.12184 7.62515 2053 ft 173 kts 257°
2026-04-24 15:08 52.11777 7.60534 2399 ft 195 kts 256°
2026-04-24 15:09 52.11312 7.58315 2757 ft 220 kts 255°
2026-04-24 15:09 52.10794 7.55833 3223 ft 244 kts 255°
2026-04-24 15:09 52.10225 7.53113 3813 ft 262 kts 255°
2026-04-24 15:09 52.09621 7.50267 4676 ft 269 kts 255°
2026-04-24 15:10 52.08999 7.47368 5588 ft 274 kts 255°
2026-04-24 15:10 52.08364 7.44418 6464 ft 279 kts 254°
2026-04-24 15:10 52.07714 7.41414 7303 ft 283 kts 254°
2026-04-24 15:10 52.07060 7.38375 8176 ft 286 kts 254°
2026-04-24 15:11 52.06401 7.35304 9045 ft 289 kts 253°
2026-04-24 15:11 52.05735 7.32198 9919 ft 292 kts 254°
2026-04-24 15:11 52.05336 7.28937 10494 ft 303 kts 270°
2026-04-24 15:11 52.05621 7.25505 10747 ft 322 kts 290°
2026-04-24 15:12 52.06694 7.22287 11312 ft 328 kts 310°
2026-04-24 15:12 52.10171 7.17392 12805 ft 334 kts 322°
2026-04-24 15:12 52.11961 7.14964 13584 ft 337 kts 315°
2026-04-24 15:13 52.13404 7.11941 14310 ft 340 kts 300°
2026-04-24 15:13 52.14332 7.08397 14943 ft 344 kts 285°
2026-04-24 15:13 52.14671 7.04523 15569 ft 349 kts 271°
2026-04-24 15:13 52.14506 7.00564 16206 ft 352 kts 265°
2026-04-24 15:14 52.14293 6.96587 16892 ft 354 kts 265°
2026-04-24 15:14 52.14081 6.92585 17560 ft 356 kts 265°
2026-04-24 15:14 52.13872 6.88548 18202 ft 359 kts 265°
2026-04-24 15:14 52.13669 6.84474 18794 ft 362 kts 265°
2026-04-24 15:15 52.13478 6.80373 19348 ft 365 kts 265°
2026-04-24 15:15 52.13290 6.76249 19909 ft 367 kts 265°
2026-04-24 15:15 52.13072 6.72106 20476 ft 368 kts 264°
2026-04-24 15:15 52.12820 6.67947 21042 ft 370 kts 264°
2026-04-24 15:16 52.12637 6.65132 21414 ft 371 kts 263°
2026-04-24 15:16 52.12355 6.60947 21953 ft 373 kts 263°
2026-04-24 15:16 52.12073 6.56799 22486 ft 375 kts 263°
2026-04-24 15:16 52.11788 6.52573 23014 ft 377 kts 263°
2026-04-24 15:17 52.11506 6.48327 23534 ft 379 kts 263°
2026-04-24 15:17 52.11222 6.44000 24011 ft 380 kts 263°
2026-04-24 15:17 52.10943 6.39771 24420 ft 382 kts 263°
2026-04-24 15:17 52.10656 6.35470 24873 ft 383 kts 263°
2026-04-24 15:18 52.10368 6.31156 25284 ft 384 kts 263°
2026-04-24 15:18 52.10077 6.26827 25700 ft 386 kts 262°
2026-04-24 15:18 52.09783 6.22480 26102 ft 387 kts 262°
2026-04-24 15:18 52.09489 6.18114 26498 ft 389 kts 262°
2026-04-24 15:19 52.09189 6.13733 26891 ft 391 kts 262°
2026-04-24 15:19 52.08884 6.09334 27280 ft 392 kts 262°
2026-04-24 15:19 52.08575 6.04917 27664 ft 394 kts 262°
2026-04-24 15:19 52.08264 6.00488 28048 ft 396 kts 262°
2026-04-24 15:20 52.07951 5.96033 28422 ft 397 kts 262°
2026-04-24 15:20 52.07635 5.91561 28788 ft 399 kts 262°
2026-04-24 15:20 52.07315 5.87064 29170 ft 402 kts 262°
2026-04-24 15:20 52.06990 5.82544 29482 ft 404 kts 262°
2026-04-24 15:21 52.06661 5.77996 29819 ft 406 kts 262°
2026-04-24 15:21 52.06332 5.73438 30153 ft 408 kts 262°
2026-04-24 15:21 52.06002 5.68845 30454 ft 410 kts 262°
2026-04-24 15:21 52.05670 5.64242 30721 ft 411 kts 262°
2026-04-24 15:22 52.05332 5.59616 30997 ft 413 kts 262°
2026-04-24 15:22 52.04990 5.54974 31253 ft 415 kts 262°
2026-04-24 15:22 52.04641 5.50314 31506 ft 416 kts 262°
2026-04-24 15:23 52.03940 5.41050 32167 ft 416 kts 262°
2026-04-24 15:23 52.03251 5.31892 32277 ft 397 kts 262°
2026-04-24 15:23 52.02917 5.27466 32277 ft 393 kts 262°
2026-04-24 15:25 52.01226 5.05568 32266 ft 391 kts 261°
2026-04-24 15:26 51.99493 4.83726 32283 ft 390 kts 261°
2026-04-24 15:27 51.97370 4.57617 32304 ft 389 kts 261°
2026-04-24 15:29 51.95189 4.31563 32274 ft 390 kts 261°
2026-04-24 15:31 51.92565 4.01078 32283 ft 392 kts 261°
2026-04-24 15:33 51.89466 3.66182 32311 ft 391 kts 261°
2026-04-24 15:34 51.87476 3.44435 32305 ft 391 kts 260°
2026-04-24 15:35 51.85443 3.22723 32315 ft 390 kts 260°
2026-04-24 15:36 51.84649 3.14050 32318 ft 390 kts 262°
2026-04-24 15:36 51.83829 3.00962 32312 ft 390 kts 263°
2026-04-24 15:37 51.83308 2.92292 32312 ft 390 kts 263°
2026-04-24 15:37 51.82741 2.83577 32310 ft 390 kts 263°
2026-04-24 15:38 51.82155 2.74879 32314 ft 389 kts 263°
2026-04-24 15:38 51.81558 2.66186 32308 ft 389 kts 263°
2026-04-24 15:39 51.80953 2.57503 32304 ft 389 kts 263°
2026-04-24 15:39 51.80344 2.48826 32315 ft 389 kts 263°
2026-04-24 15:40 51.79741 2.40149 32323 ft 388 kts 263°
2026-04-24 15:40 51.79127 2.31485 32321 ft 388 kts 263°
2026-04-24 15:41 51.78496 2.22835 32290 ft 388 kts 263°
2026-04-24 15:41 51.78198 2.18472 32109 ft 392 kts 264°
2026-04-24 15:41 51.77934 2.14101 31854 ft 390 kts 264°
2026-04-24 15:42 51.77688 2.09741 31598 ft 390 kts 264°
2026-04-24 15:42 51.77445 2.05376 31349 ft 390 kts 264°
2026-04-24 15:42 51.77202 2.01011 31094 ft 391 kts 264°
2026-04-24 15:42 51.76952 1.96633 30588 ft 392 kts 264°
2026-04-24 15:43 51.76691 1.92258 29984 ft 392 kts 264°
2026-04-24 15:43 51.76424 1.87876 29332 ft 392 kts 264°
2026-04-24 15:43 51.76158 1.83551 28715 ft 392 kts 264°
2026-04-24 15:43 51.75890 1.79196 28101 ft 389 kts 264°
2026-04-24 15:44 51.75622 1.74860 27493 ft 386 kts 264°
2026-04-24 15:44 51.75354 1.70564 26908 ft 384 kts 264°
2026-04-24 15:44 51.75083 1.66303 26328 ft 381 kts 263°
2026-04-24 15:44 51.74812 1.62020 25694 ft 390 kts 263°
2026-04-24 15:45 51.74535 1.57630 25076 ft 395 kts 263°
2026-04-24 15:45 51.74255 1.53219 24468 ft 395 kts 263°
2026-04-24 15:45 51.73976 1.48822 23861 ft 392 kts 263°
2026-04-24 15:45 51.73696 1.44455 23154 ft 390 kts 263°
2026-04-24 15:46 51.73418 1.40115 22453 ft 388 kts 263°
2026-04-24 15:46 51.73136 1.35792 21773 ft 387 kts 263°
2026-04-24 15:46 51.72854 1.31491 21096 ft 385 kts 263°
2026-04-24 15:46 51.72570 1.27203 20442 ft 384 kts 263°
2026-04-24 15:47 51.72284 1.22923 19802 ft 383 kts 263°
2026-04-24 15:47 51.71999 1.18650 19175 ft 383 kts 263°
2026-04-24 15:47 51.71713 1.14389 18557 ft 382 kts 263°
2026-04-24 15:47 51.71427 1.10128 17880 ft 382 kts 263°
2026-04-24 15:48 51.71141 1.05889 17344 ft 378 kts 263°
2026-04-24 15:48 51.70854 1.01692 16825 ft 375 kts 263°
2026-04-24 15:48 51.70569 0.97530 16316 ft 372 kts 263°
2026-04-24 15:48 51.70283 0.93398 15813 ft 370 kts 263°
2026-04-24 15:49 51.69996 0.89282 15318 ft 369 kts 263°
2026-04-24 15:49 51.69706 0.85177 14832 ft 368 kts 262°
2026-04-24 15:49 51.69419 0.81084 14353 ft 366 kts 263°
2026-04-24 15:49 51.69134 0.77025 13850 ft 364 kts 263°
2026-04-24 15:50 51.68849 0.72979 13327 ft 361 kts 263°
2026-04-24 15:50 51.68568 0.68981 12811 ft 358 kts 263°
2026-04-24 15:50 51.68295 0.65114 12640 ft 345 kts 263°
2026-04-24 15:50 51.68023 0.61340 12507 ft 333 kts 263°
2026-04-24 15:51 51.67757 0.57704 12377 ft 321 kts 262°
2026-04-24 15:51 51.67497 0.54192 12248 ft 310 kts 263°
2026-04-24 15:51 51.67251 0.50797 12121 ft 300 kts 262°
2026-04-24 15:51 51.67016 0.47511 11998 ft 291 kts 262°
2026-04-24 15:52 51.66785 0.44319 11868 ft 282 kts 262°
2026-04-24 15:52 51.66558 0.41214 11640 ft 278 kts 262°
2026-04-24 15:52 51.66330 0.38147 11389 ft 274 kts 262°
2026-04-24 15:52 51.66102 0.35117 11142 ft 271 kts 261°
2026-04-24 15:53 51.65880 0.32121 10900 ft 268 kts 261°
2026-04-24 15:53 51.65659 0.29161 10656 ft 265 kts 262°
2026-04-24 15:53 51.65438 0.26237 10406 ft 262 kts 262°
2026-04-24 15:53 51.65215 0.23313 10041 ft 264 kts 262°
2026-04-24 15:54 51.64990 0.20378 9654 ft 265 kts 262°
2026-04-24 15:54 51.64767 0.17434 9260 ft 266 kts 262°
2026-04-24 15:54 51.64545 0.14464 8871 ft 267 kts 263°
2026-04-24 15:54 51.64360 0.11497 8494 ft 267 kts 264°
2026-04-24 15:55 51.64204 0.08541 8288 ft 259 kts 264°
2026-04-24 15:55 51.64060 0.05696 8295 ft 253 kts 264°
2026-04-24 15:55 51.63910 0.02861 8075 ft 253 kts 264°
2026-04-24 15:55 51.63761 0.00045 7827 ft 251 kts 264°
2026-04-24 15:56 51.63608 -0.02753 7589 ft 252 kts 264°
2026-04-24 15:56 51.63467 -0.05558 7384 ft 250 kts 264°
2026-04-24 15:56 51.63331 -0.08358 7308 ft 251 kts 265°
2026-04-24 15:56 51.63192 -0.11114 7315 ft 251 kts 263°
2026-04-24 15:57 51.63053 -0.13925 7322 ft 253 kts 264°
2026-04-24 15:57 51.62917 -0.16751 7325 ft 254 kts 264°
2026-04-24 15:57 51.62827 -0.18662 7327 ft 253 kts 264°
2026-04-24 15:57 51.62638 -0.22385 7326 ft 252 kts 264°
2026-04-24 15:58 51.62500 -0.25198 7328 ft 252 kts 265°
2026-04-24 15:58 51.62353 -0.28000 7326 ft 250 kts 264°
2026-04-24 15:58 51.62202 -0.30787 7326 ft 251 kts 264°
2026-04-24 15:58 51.62059 -0.33592 7273 ft 253 kts 265°
2026-04-24 15:59 51.61918 -0.36402 7272 ft 251 kts 265°
2026-04-24 15:59 51.61776 -0.39211 7272 ft 253 kts 264°
2026-04-24 15:59 51.61637 -0.42027 7272 ft 252 kts 264°
2026-04-24 15:59 51.61497 -0.44845 7277 ft 253 kts 265°
2026-04-24 16:00 51.61349 -0.47650 7270 ft 251 kts 263°
2026-04-24 16:00 51.61207 -0.50464 7273 ft 252 kts 264°
2026-04-24 16:00 51.61063 -0.53272 7274 ft 252 kts 264°
2026-04-24 16:00 51.60915 -0.56070 7273 ft 250 kts 264°
2026-04-24 16:01 51.60768 -0.58864 7275 ft 252 kts 263°
2026-04-24 16:01 51.60625 -0.61673 7273 ft 252 kts 264°
2026-04-24 16:01 51.60476 -0.64478 7270 ft 252 kts 264°
2026-04-24 16:01 51.60337 -0.67299 7272 ft 254 kts 264°
2026-04-24 16:02 51.60198 -0.70122 7270 ft 253 kts 264°
2026-04-24 16:02 51.60052 -0.72934 7270 ft 251 kts 264°
2026-04-24 16:02 51.59905 -0.75736 7269 ft 252 kts 264°
2026-04-24 16:02 51.59758 -0.78503 7265 ft 251 kts 263°
2026-04-24 16:03 51.59607 -0.81304 7265 ft 251 kts 264°
2026-04-24 16:03 51.59454 -0.84133 7264 ft 251 kts 264°
2026-04-24 16:03 51.59309 -0.86940 7263 ft 252 kts 264°
2026-04-24 16:03 51.59157 -0.89743 7262 ft 252 kts 264°
2026-04-24 16:04 51.59010 -0.92556 7262 ft 253 kts 264°
2026-04-24 16:04 51.58831 -0.95370 7245 ft 253 kts 255°
2026-04-24 16:04 51.58065 -0.97833 7244 ft 247 kts 225°
2026-04-24 16:04 51.56688 -0.99320 7012 ft 240 kts 194°
2026-04-24 16:05 51.53541 -0.98440 6511 ft 236 kts 152°
2026-04-24 16:05 51.52083 -0.97245 6263 ft 235 kts 151°
2026-04-24 16:06 51.49215 -0.94772 5740 ft 234 kts 142°
2026-04-24 16:06 51.48150 -0.92851 5512 ft 231 kts 119°
2026-04-24 16:06 51.47516 -0.87977 4912 ft 224 kts 89°
2026-04-24 16:07 51.47537 -0.85487 4612 ft 223 kts 89°
2026-04-24 16:07 51.47551 -0.83808 4401 ft 223 kts 89°
2026-04-24 16:07 51.47585 -0.78849 3827 ft 222 kts 89°
2026-04-24 16:08 51.47602 -0.76379 3517 ft 221 kts 89°
2026-04-24 16:08 51.47629 -0.71814 2971 ft 220 kts 90°
2026-04-24 16:09 51.47657 -0.67087 2368 ft 202 kts 89°
2026-04-24 16:09 51.47674 -0.64881 2148 ft 193 kts 89°
2026-04-24 16:09 51.47693 -0.62801 1943 ft 181 kts 89°
2026-04-24 16:09 51.47692 -0.60798 1670 ft 177 kts 90°
2026-04-24 16:10 51.47717 -0.55528 989 ft 144 kts 90°
2026-04-24 16:11 51.47731 -0.52372 626 ft 141 kts 90°
2026-04-24 16:11 51.47740 -0.50788 431 ft 143 kts 90°
2026-04-24 16:11 51.47750 -0.49189 228 ft 143 kts 91°
2026-04-24 16:12 51.47757 -0.46290 90 ft 97 kts 89°
2026-04-24 16:12 51.47761 -0.45406 85 ft 68 kts 89°
2026-04-24 16:12 51.47709 -0.44400 89 ft 20 kts 113°
2026-04-24 16:13 51.47669 -0.44277 88 ft 2 kts 121°